Location: Kelowna
(49.8880°N, 119.4960°W)
Time: 05:50:39
(UTC-07:00)

SO-50 - Visible Passes

Search period start: 13 April 2024 00:00
Search period end: 23 April 2024 00:00
Orbit: 611 x 656 km, 64.6° (Epoch: 12 April)

Date Brightness Start Highest point End Pass type
(mag) Time Alt. Az. Time Alt. Az. Time Alt. Az.
13 Apr ? 00:11:31 10° NNW 00:15:00 33° NNE 00:15:00 33° NNE visible
13 Apr ? 01:51:45 10° NW 01:52:25 14° NW 01:52:25 14° NW visible
13 Apr ? 21:12:48 10° NNW 21:14:48 13° N 21:16:46 10° NNE visible
13 Apr ? 22:53:33 10° NNW 22:56:45 19° NNE 22:58:46 14° NE visible
14 Apr ? 00:33:23 10° NW 00:36:11 36° NNW 00:36:11 36° NNW visible
14 Apr ? 21:35:19 10° NNW 21:37:29 13° N 21:39:39 10° NE visible
14 Apr ? 23:15:22 10° NNW 23:19:12 27° NNE 23:19:57 25° NE visible
15 Apr ? 00:55:23 10° NW 00:57:22 26° NW 00:57:22 26° NW visible
15 Apr ? 21:57:22 10° NNW 22:00:07 16° NNE 22:02:53 10° NE visible
15 Apr ? 23:37:12 10° NNW 23:41:10 42° NNE 23:41:10 42° NNE visible
16 Apr ? 01:17:37 10° NW 01:18:35 15° WNW 01:18:35 15° WNW visible
16 Apr ? 20:38:48 10° NNW 20:40:47 13° N 20:42:46 10° NNE visible
16 Apr ? 22:19:13 10° NNW 22:22:40 21° NNE 22:25:00 15° ENE visible
16 Apr ? 23:59:06 10° NW 00:02:24 48° NNW 00:02:24 48° NNW visible
17 Apr ? 21:01:06 10° NNW 21:03:27 14° NNE 21:05:48 10° NE visible
17 Apr ? 22:41:02 10° NNW 22:45:03 31° NE 22:46:14 27° ENE visible
18 Apr ? 00:21:09 10° NW 00:23:40 31° WNW 00:23:40 31° WNW visible
18 Apr ? 21:23:03 10° NNW 21:26:03 17° NNE 21:29:03 10° ENE visible
18 Apr ? 23:02:52 10° NW 23:07:16 52° NE 23:07:31 52° ENE visible
19 Apr ? 00:43:32 10° WNW 00:44:56 17° WNW 00:44:56 17° WNW visible
19 Apr ? 21:44:51 10° NNW 21:48:32 24° NNE 21:51:23 14° ENE visible
19 Apr ? 23:24:48 10° NW 23:28:48 70° WNW 23:28:48 70° WNW visible
20 Apr ? 22:06:40 10° NNW 22:10:51 37° NE 22:12:42 25° E visible
20 Apr ? 23:46:56 10° NW 23:50:08 35° W 23:50:08 35° W visible
21 Apr ? 20:48:40 10° NNW 20:51:56 19° NNE 20:55:10 10° ENE visible
21 Apr ? 22:28:30 10° NW 22:32:59 66° NE 22:34:03 48° ESE visible
22 Apr ? 00:09:30 10° WNW 00:11:28 18° W 00:11:28 18° W visible
22 Apr ? 21:10:28 10° NNW 21:14:21 28° NNE 21:18:00 11° E visible
22 Apr ? 22:50:30 10° NW 22:54:56 65° SW 22:55:25 59° SSW visible
